CAPE
0 0 42 305 278 320 54 7 21 114 81 114 76 83 50 117 50 50 328 565 797 581 544 611 469 390 435 705 705 710 521 852 807 1397 1769 1591 1631 1593 1579 1648 1639 1567 1401 1118 1193 1430 1315 1173 950
0 7 177 263 133 45 2 0 22 79 41 87 74 101 104 107 149 209 345 486 593 688 698 711 826 678 973 954 976 1049 750 977 1781 1881 1810 1748 1710 1620 1593 1647 1590 1686 1148 605 350 367 847 920 912
0 275 344 105 98 21 4 2 41 63 0 16 0 35 140 273 294 362 317 554 692 630 1065 1411 1042 1099 1209 1406 1518 1430 1515 1400 1760 1839 2010 1847 1745 1660 1574 1390 1652 1584 1683 1918 1286 404 81 232 412
185 301 93 191 90 21 1 39 93 6 1 2 27 109 179 279 280 406 580 648 685 641 1367 1618 1669 1708 1741 1604 1827 1837 1953 1731 1845 1920 2006 1912 1629 1505 1564 1478 1492 1659 1736 1560 1322 860 63 23 107
39 47 220 122 108 11 109 119 43 10 2 3 0 112 167 289 226 447 903 796 673 597 1470 1659 1766 1555 1930 1812 1867 1751 2022 2049 1781 2065 1807 1455 1487 1535 1609 1677 1610 1567 1458 1194 1099 1009 38 0 0
126 98 78 78 68 46 93 165 73 26 39 2 0 16 110 172 203 283 644 655 640 1041 1389 1508 1889 1762 1816 2095 2053 1834 1739 2073 1929 2119 1970 1844 1685 1690 1813 1575 1538 1479 1489 1504 988 312 0 0 0
136 31 96 125 71 54 25 46 129 11 9 0 0 4 77 282 226 177 266 508 579 482 498 888 1168 1512 1695 2173 2039 1783 1576 1615 1974 2181 1948 1890 1555 1830 1732 1644 1484 1309 1342 1421 1468 843 98 0 0
186 85 142 114 89 139 128 146 93 22 23 0 5 8 42 164 56 10 20 30 157 436 444 517 900 1100 1804 2003 2020 1997 1790 1675 2022 1976 1696 1690 1539 1472 1292 1245 1403 1289 1259 1122 1123 828 476 199 76
7 10 46 48 130 142 135 87 76 62 21 8 27 0 10 42 113 184 114 398 659 845 851 699 964 939 1158 1727 2021 1824 1527 1319 1677 1504 1478 1184 923 934 1044 773 1269 1257 1316 1138 991 613 238 383 483
56 0 7 8 62 179 84 7 104 52 16 20 9 26 62 124 119 192 348 393 528 618 789 943 1020 960 1006 1300 1514 1313 1377 1046 868 405 707 921 1289 1011 677 898 1175 1043 1049 1130 1075 1063 1309 1244 928
0 2 1 0 47 149 220 80 130 31 12 3 9 0 39 40 134 272 331 314 301 458 695 215 695 716 746 595 1195 1193 1423 1462 1002 65 65 843 855 613 437 143 13 306 892 992 1347 1444 1082 1137 1268
27 0 0 23 114 298 236 143 56 86 19 20 22 15 13 35 122 136 105 202 279 337 465 591 320 504 1141 1031 1228 1245 1400 1063 1274 1071 924 116 14 42 148 11 19 91 829 1158 945 447 242 976 1143
27 0 0 181 229 240 94 26 52 49 17 36 33 20 23 37 38 48 173 400 359 433 648 740 878 1026 997 741 1059 1182 1382 768 691 727 639 468 0 87 267 629 635 827 976 1128 986 1006 1001 914 782
164 33 48 253 213 185 54 17 49 22 9 15 26 13 18 23 37 91 216 291 314 423 618 847 879 955 1132 897 622 879 977 516 883 112 0 554 778 735 778 255 478 711 714 470 942 931 750 740 693
165 213 237 265 186 59 0 0 16 2 8 0 0 10 32 42 60 75 190 318 422 328 456 418 628 459 484 411 579 440 500 1096 738 615 217 578 525 275 762 1216 1226 232 566 863 1027 1078 1414 671 703
169 117 146 168 191 29 11 0 7 4 2 1 5 17 27 38 51 45 47 31 246 331 308 238 254 217 451 169 281 589 493 777 445 0 486 228 866 927 728 718 1125 2226 2131 2011 1542 1327 1490 504 619
13 47 91 286 327 89 59 0 0 4 5 4 28 33 52 49 76 47 88 71 122 163 365 406 91 189 478 401 848 696 552 639 589 806 1061 643 252 19 217 290 827 1519 1198 965 1641 1497 1666 1607 772
16 104 96 154 336 66 110 6 0 0 6 21 62 30 43 42 57 82 46 109 59 129 354 267 306 245 303 688 433 563 694 736 784 1027 1007 769 184 0 0 481 1503 1150 1007 1439 1612 1706 2108 1993 1729
86 108 185 107 56 284 131 14 0 0 23 58 86 42 53 47 67 61 39 99 93 201 229 309 386 150 313 602 109 257 464 1069 815 621 940 795 68 42 838 1410 432 823 1631 1558 1523 2016 2407 1460 1331
43 44 65 12 0 14 142 1 0 0 19 78 76 40 47 82 59 83 102 174 218 199 290 320 167 231 412 671 298 689 528 862 857 880 945 986 1266 1312 759 1500 915 1089 978 1505 2028 2324 2407 2413 2054
4 7 73 87 0 68 111 19 0 0 46 148 78 30 42 81 77 70 90 61 241 141 327 293 220 407 314 439 509 590 844 454 560 674 628 649 819 847 915 1460 1181 492 318 774 1535 2207 2450 2240 2061
180 98 57 3 0 0 6 30 10 5 34 110 54 16 40 25 78 76 116 187 185 135 185 238 202 62 256 541 419 185 102 193 183 303 691 720 800 674 771 1277 1364 791 279 765 1517 1977 2363 1861 665
126 31 10 0 0 0 0 10 45 66 16 14 33 4 1 21 36 68 75 238 196 201 266 199 185 164 424 531 631 555 237 387 761 516 843 530 896 917 830 927 1158 1538 1283 1285 1677 1920 2229 1400 0
21 140 104 132 21 5 27 4 48 69 21 3 27 0 0 0 2 38 80 108 211 217 501 447 320 278 609 593 540 339 264 497 592 468 442 702 479 705 647 1147 1037 1469 766 893 1671 1832 2337 2324 279
0 19 1 7 4 5 9 100 102 65 111 51 70 30 0 0 0 20 33 80 177 368 565 579 337 279 499 637 329 536 772 438 460 492 388 570 588 499 355 999 957 1200 1116 1525 1895 1827 1854 1960 1951
0 0 0 5 0 0 0 64 76 52 167 201 47 30 2 0 0 4 22 32 116 146 424 686 383 286 337 653 453 831 720 610 564 641 758 945 829 693 697 892 1107 860 1326 1542 1498 1710 1640 1904 1682
0 0 0 0 0 0 26 329 367 169 56 104 46 197 24 0 0 0 0 22 14 32 297 688 479 431 455 577 854 1041 866 604 532 734 979 829 623 718 685 883 1187 928 1245 1604 1641 1520 1329 1727 1932
0 0 0 0 0 0 7 220 161 20 87 34 0 0 126 3 6 15 19 62 31 19 262 522 629 353 470 787 681 737 893 883 1005 924 795 650 645 705 830 894 936 1243 840 1201 996 1039 1299 1448 1492
0 0 0 0 0 0 15 16 310 156 125 0 0 5 2 91 34 0 122 130 88 23 91 246 581 297 607 1264 834 589 673 818 1018 937 827 1029 1114 438 402 383 692 943 974 935 954 884 982 985 941
0 0 0 0 0 0 0 81 263 165 274 4 0 46 216 103 99 26 74 48 28 11 21 183 168 214 602 941 979 842 688 895 842 858 915 977 897 947 751 696 882 959 622 787 942 826 1142 1117 970
CIN
-0 -0 -182 -109 -77 -83 -8 -14 -17 -38 -46 -45 -43 -59 -70 -32 -56 -29 -29 -45 -30 -36 -32 -17 -13 -18 -17 -7 -11 -13 -22 -15 -9 -2 -1 -0 -0 -0 -0 -0 -0 -0 -0 -2 -1 -0 -3 -6 -8
-0 -83 -148 -100 -62 -11 -3 -2 -29 -39 -49 -56 -56 -89 -82 -71 -125 -74 -7 -43 -62 -32 -21 -21 -6 -7 -2 -6 -4 -2 -18 -7 -0 -1 -0 -0 -0 -0 -0 -0 -0 -0 -0 -14 -35 -43 -26 -19 -22
-0 -72 -56 -100 -50 -11 -4 -15 -23 -31 -5 -53 -1 -44 -51 -29 -11 -25 -21 -43 -51 -43 -12 -1 -5 -4 -5 -2 -1 -1 -0 -2 -2 -0 -0 -0 -0 -0 -0 -0 -0 -0 -0 -0 -5 -53 -106 -82 -65
-95 -34 -113 -38 -22 -4 -4 -31 -74 -5 -5 -21 -42 -4 -14 -46 -37 -33 -31 -56 -56 -54 -9 -1 -1 -0 -0 -3 -0 -0 -0 -3 -0 -0 -0 -0 -0 -0 -0 -0 -0 -0 -0 -0 -11 -39 -90 -146 -122
-106 -113 -24 -35 -9 -27 -34 -30 -15 -8 -11 -4 -3 -16 -13 -24 -41 -21 -23 -61 -78 -67 -5 -1 -1 -2 -0 -1 -0 -1 -0 -0 -5 -0 -0 -2 -1 -1 -1 -0 -0 -0 -4 -16 -25 -41 -118 -0 -0
-59 -106 -55 -7 -11 -36 -44 -23 -29 -38 -23 -4 -0 -5 -15 -16 -17 -27 -25 -50 -71 -48 -12 -0 -0 -0 -1 -0 -0 -2 -5 -0 -0 -0 -0 -0 -2 -3 -2 -10 -11 -15 -18 -22 -48 -105 -0 -0 -0
-59 -138 -44 -14 -28 -33 -45 -28 -21 -24 -22 -0 -0 -1 -28 -18 -35 -43 -77 -53 -84 -93 -91 -59 -33 -14 -4 -0 -0 -5 -10 -5 -3 -0 -1 -1 -5 -1 -6 -19 -24 -36 -39 -37 -38 -71 -126 -0 -0
-41 -26 -26 -17 -14 -9 -28 -15 -19 -18 -39 -0 -39 -4 -33 -44 -51 -77 -30 -70 -98 -80 -81 -98 -63 -47 -1 -1 -1 -6 -11 -10 -0 -0 -9 -10 -10 -18 -37 -48 -44 -45 -48 -57 -61 -84 -94 -125 -140
-137 -50 -39 -57 -35 -26 -12 -30 -18 -11 -25 -26 -21 -1 -19 -24 -35 -51 -48 -24 -34 -34 -42 -60 -49 -53 -33 -3 -1 -15 -22 -19 -9 -27 -21 -22 -42 -52 -47 -59 -46 -48 -44 -54 -55 -72 -95 -108 -111
-72 -0 -73 -221 -115 -20 -20 -9 -12 -31 -55 -9 -25 -8 -22 -40 -46 -38 -33 -24 -24 -15 -12 -23 -21 -26 -42 -20 -23 -35 -19 -39 -86 -148 -73 -58 -42 -42 -37 -58 -56 -65 -61 -72 -68 -59 -58 -81 -98
-0 -77 -17 -8 -102 -97 -17 -31 -17 -31 -5 -8 -19 -0 -14 -32 -55 -30 -22 -38 -32 -12 -25 -117 -57 -64 -49 -56 -38 -43 -33 -21 -88 -126 -95 -71 -63 -49 -78 -82 -13 -82 -61 -78 -56 -92 -98 -91 -100
-125 -0 -0 -60 -94 -94 -20 -10 -23 -14 -46 -55 -21 -12 -11 -12 -38 -40 -44 -37 -28 -23 -60 -42 -67 -78 -32 -47 -34 -26 -20 -26 -20 -29 -41 -93 -41 -87 -114 -10 -12 -122 -79 -46 -74 -100 -73 -63 -80
-79 -0 -34 -20 -58 -41 -50 -47 -41 -18 -39 -56 -31 -7 -14 -7 -39 -57 -51 -30 -23 -23 -9 -12 -29 -16 -19 -26 -28 -16 -19 -26 -33 -51 -57 -87 -0 -90 -120 -84 -76 -59 -55 -42 -23 -36 -46 -28 -26
-14 -99 -70 -10 -16 -56 -39 -64 -34 -40 -38 -40 -31 -5 -14 -27 -13 -39 -39 -40 -36 -33 -29 -25 -16 -13 -15 -26 -35 -20 -19 -28 -46 -115 -0 -83 -61 -38 -49 -99 -74 -62 -33 -32 -29 -28 -33 -24 -30
-9 -15 -39 -45 -78 -100 -0 -3 -26 -8 -22 -0 -0 -7 -31 -48 -28 -26 -41 -58 -36 -43 -44 -29 -21 -30 -13 -24 -32 -30 -22 -23 -50 -73 -90 -62 -62 -46 -62 -65 -47 -54 -32 -33 -29 -28 -26 -40 -49
-25 -23 -19 -74 -67 -98 -45 -0 -45 -59 -16 -5 -4 -8 -41 -44 -30 -29 -37 -37 -42 -42 -46 -41 -23 -63 -24 -54 -36 -30 -22 -23 -31 -0 -59 -84 -72 -72 -71 -74 -55 -17 -27 -35 -40 -47 -23 -68 -56
-19 -9 -16 -11 -23 -73 -50 -6 -25 -95 -49 -10 -7 -6 -25 -34 -21 -30 -27 -40 -45 -55 -40 -29 -56 -37 -22 -33 -19 -18 -15 -23 -31 -39 -25 -75 -103 -74 -30 -85 -80 -39 -54 -51 -30 -28 -36 -24 -20
-27 -20 -36 -22 -7 -50 -59 -20 -0 -0 -60 -43 -33 -7 -11 -22 -17 -42 -45 -43 -40 -48 -30 -44 -38 -32 -30 -14 -19 -18 -15 -20 -18 -17 -22 -45 -82 -0 -0 -101 -54 -45 -54 -36 -39 -27 -24 -23 -22
-6 -17 -13 -84 -96 -1 -26 -64 -0 -0 -73 -33 -29 -9 -15 -21 -26 -39 -51 -53 -38 -34 -48 -39 -35 -45 -26 -20 -47 -18 -14 -13 -21 -12 -14 -42 -95 -61 -59 -32 -60 -62 -53 -45 -32 -30 -25 -21 -34
-8 -37 -55 -108 -7 -66 -15 -10 -0 -0 -30 -44 -37 -62 -50 -33 -24 -41 -54 -50 -33 -37 -35 -44 -30 -27 -21 -23 -38 -22 -20 -19 -24 -19 -16 -16 -13 -25 -37 -24 -68 -81 -54 -52 -38 -29 -33 -31 -40
-13 -8 -40 -43 -0 -98 -43 -8 -0 -6 -33 -39 -62 -88 -92 -72 -38 -37 -42 -44 -45 -41 -32 -45 -36 -24 -19 -24 -30 -30 -28 -36 -20 -15 -21 -14 -17 -23 -28 -16 -38 -63 -93 -76 -57 -29 -31 -40 -49
-16 -56 -34 -87 -2 -0 -6 -1 -11 -40 -25 -19 -47 -93 -61 -53 -35 -30 -36 -56 -62 -62 -56 -47 -45 -62 -20 -11 -16 -38 -50 -23 -38 -25 -21 -15 -14 -16 -17 -12 -25 -51 -86 -66 -29 -32 -42 -71 -109
-7 -16 -28 -4 -0 -0 -0 -1 -27 -27 -81 -72 -72 -68 -49 -55 -65 -36 -32 -39 -69 -64 -74 -80 -48 -45 -19 -15 -12 -15 -39 -31 -22 -18 -18 -14 -10 -9 -12 -8 -14 -23 -42 -58 -38 -20 -27 -75 -0
-31 -14 -31 -55 -93 -127 -163 -3 -61 -125 -186 -115 -177 -0 -0 -0 -53 -49 -47 -36 -24 -48 -47 -60 -68 -48 -18 -12 -19 -25 -32 -28 -24 -30 -22 -24 -24 -16 -15 -7 -14 -25 -77 -58 -42 -21 -19 -27 -76
-0 -7 -0 -47 -19 -19 -54 -58 -51 -168 -247 -222 -279 -280 -0 -0 -3 -57 -60 -75 -26 -28 -37 -51 -75 -68 -33 -22 -41 -18 -13 -29 -25 -30 -38 -30 -21 -26 -26 -13 -20 -20 -34 -24 -24 -35 -23 -25 -25
-0 -0 -19 -72 -0 -0 -0 -6 -32 -92 -104 -86 -147 -224 -93 -0 -0 -96 -86 -52 -44 -57 -21 -29 -81 -87 -70 -25 -32 -22 -22 -21 -28 -20 -18 -19 -24 -20 -22 -13 -16 -27 -22 -9 -19 -19 -28 -26 -35
-0 -0 -0 -0 -0 -0 -13 -59 -65 -114 -112 -135 -37 -27 -165 -0 -2 -13 -0 -63 -61 -85 -34 -41 -58 -65 -74 -40 -17 -11 -24 -41 -25 -16 -18 -17 -20 -38 -26 -14 -11 -13 -11 -6 -7 -12 -13 -16 -20
-0 -0 -0 -0 -0 -0 -12 -21 -25 -46 -68 -154 -0 -0 -29 -17 -139 -130 -107 -71 -93 -101 -57 -45 -30 -57 -82 -55 -39 -24 -21 -19 -20 -18 -25 -21 -26 -26 -26 -19 -16 -8 -12 -8 -7 -11 -14 -13 -13
-0 -0 -0 -0 -0 -0 -5 -16 -42 -98 -79 -0 -0 -66 -14 -93 -90 -0 -49 -82 -81 -104 -100 -114 -44 -23 -39 -42 -38 -40 -33 -26 -17 -23 -24 -14 -15 -44 -42 -35 -21 -13 -8 -8 -10 -12 -16 -19 -17
-0 -0 -0 -0 -0 -0 -0 -36 -168 -121 -121 -43 -0 -214 -140 -172 -104 -112 -102 -125 -116 -137 -143 -78 -104 -94 -10 -39 -23 -26 -26 -22 -23 -24 -26 -26 -14 -16 -15 -8 -8 -11 -13 -8 -12 -7 -8 -14 -13
Wind_Speed
19 20 16 16 20 22 28 30 27 27 25 23 24 24 23 18 21 24 21 30 28 28 29 27 29 31 32 34 33 32 31 31 25 7 6 9 11 16 19 25 16 7 7 5 4 6 13 16 28
19 20 15 17 24 27 29 21 23 28 29 27 28 25 23 25 27 32 30 28 29 28 28 28 28 29 30 32 32 31 31 31 29 6 13 6 10 9 12 8 14 20 8 8 3 10 11 25 26
18 19 14 13 20 27 27 23 17 25 23 25 27 27 25 29 27 29 31 31 29 28 27 27 26 26 28 30 31 32 33 33 31 20 21 8 6 5 17 20 17 16 10 4 3 17 23 26 25
19 15 14 21 24 25 25 24 25 31 30 28 29 30 29 30 30 31 31 29 27 27 27 26 25 26 28 31 32 34 33 34 29 24 23 13 6 11 15 17 17 18 15 10 19 22 24 24 24
11 10 13 22 22 23 17 20 28 26 27 27 29 30 30 29 32 32 29 29 27 26 26 25 25 25 28 30 32 34 34 34 32 12 5 8 10 15 16 16 16 21 20 10 18 24 24 24 24
11 9 17 26 20 20 20 1 17 25 28 28 29 28 29 32 30 28 24 29 28 27 26 24 24 27 28 29 32 33 32 30 28 27 24 23 21 22 21 23 23 23 21 22 24 26 25 25 26
10 8 24 24 20 20 24 7 23 25 27 26 28 30 28 28 28 29 30 31 29 27 26 27 26 27 29 30 32 32 32 31 30 30 27 27 26 19 12 12 21 25 23 23 24 25 26 28 27
3 17 16 19 20 19 26 22 27 24 26 29 28 27 28 29 30 30 31 28 28 29 29 28 28 28 30 31 31 31 31 32 31 29 29 27 26 25 24 24 25 26 26 26 26 25 25 25 25
17 12 13 14 5 21 22 21 18 18 27 26 22 27 32 31 28 29 28 26 27 29 28 30 31 30 30 30 30 30 30 32 32 30 29 29 28 28 27 24 23 22 22 21 22 24 25 23 21
6 8 9 21 19 27 20 19 23 17 24 25 29 29 29 29 26 25 26 27 27 27 24 26 30 29 29 30 30 30 30 30 30 26 29 28 27 26 23 20 20 21 21 21 22 21 20 20 19
4 12 13 27 22 18 14 22 22 26 22 24 28 27 28 27 26 23 28 27 28 26 22 19 30 29 28 28 30 28 28 27 24 24 16 19 25 22 24 22 19 20 20 21 21 23 21 21 21
7 10 20 23 26 23 12 9 12 18 20 22 23 26 27 25 25 24 25 27 28 24 28 31 28 30 28 28 29 28 26 27 25 22 23 23 24 21 21 18 16 15 16 18 21 26 20 19 19
6 12 21 19 18 9 7 11 11 20 21 19 23 23 22 24 24 24 24 25 24 24 25 26 27 26 28 26 29 29 27 24 19 8 8 18 23 25 19 19 18 17 18 21 20 22 20 16 8
18 17 19 21 4 5 6 7 8 16 20 19 23 22 19 23 21 23 23 23 24 22 23 22 24 25 27 28 28 28 27 24 9 8 27 21 16 21 25 20 20 16 20 21 18 16 17 16 17
3 13 10 6 7 9 7 7 6 5 14 19 20 21 19 22 23 23 23 21 24 25 24 24 23 26 25 26 28 27 27 20 24 17 24 9 12 10 14 14 11 18 15 17 17 15 16 21 19
9 28 3 5 5 9 10 3 7 6 11 14 18 22 19 22 22 19 20 21 20 22 23 25 25 25 26 28 26 25 25 22 24 23 21 27 22 23 23 14 10 12 14 16 19 15 18 21 20
19 24 12 6 8 8 10 11 21 11 3 9 15 14 15 17 22 20 15 17 20 20 20 26 26 26 27 28 22 25 23 21 25 25 26 20 18 18 14 12 13 11 14 12 8 10 9 13 20
24 23 19 13 12 11 8 6 10 1 15 12 20 10 10 13 20 19 17 17 18 16 19 23 26 26 27 24 16 14 10 23 24 26 23 18 21 23 21 15 16 9 12 10 9 9 11 13 14
24 15 15 13 15 15 10 8 13 14 13 18 16 9 3 13 13 13 16 17 16 17 19 24 25 26 26 26 27 27 16 15 16 19 22 21 20 23 10 17 11 9 12 13 10 11 12 12 11
23 27 21 15 15 22 16 10 6 11 32 25 14 3 3 12 7 11 17 18 18 16 19 21 24 26 27 25 27 26 13 2 9 22 23 21 8 15 17 12 13 14 13 12 10 11 11 11 12
28 26 19 18 16 20 16 13 13 32 23 18 16 13 3 4 20 12 17 18 19 20 18 21 22 26 28 26 26 27 12 7 11 22 23 23 9 12 19 15 13 16 17 13 12 11 11 12 13
19 7 11 9 15 19 21 17 18 25 36 27 14 16 15 5 12 15 18 16 22 24 21 20 20 27 28 28 27 26 27 24 24 22 24 24 24 22 24 21 16 15 15 15 14 12 12 12 13
15 17 13 13 17 11 15 27 18 5 25 42 27 11 13 10 11 26 18 3 19 22 21 19 21 26 28 27 27 27 26 25 23 24 25 25 23 24 24 22 19 18 16 15 14 13 12 13 13
15 7 8 12 16 18 19 12 19 5 27 28 22 20 27 22 9 9 19 23 29 19 19 20 19 23 27 26 27 28 27 25 24 24 21 24 24 24 24 24 22 15 17 17 18 15 13 14 13
27 5 16 22 25 20 11 6 27 28 27 28 25 27 24 29 32 14 17 33 11 19 21 19 18 19 23 29 27 27 27 25 24 23 22 24 24 24 25 24 24 20 20 19 17 17 16 16 16
29 22 25 19 22 25 25 24 16 20 13 25 29 25 28 31 31 25 24 20 11 12 18 17 16 14 16 26 28 27 25 26 25 20 20 22 23 22 22 20 16 23 20 18 16 18 18 17 17
22 23 30 20 22 23 18 18 13 13 12 12 18 32 26 31 32 18 18 23 20 6 4 13 10 8 11 15 30 29 27 20 25 25 25 15 21 17 15 14 9 11 7 9 11 15 18 20 18
28 22 23 23 28 24 22 20 22 21 15 20 25 27 35 21 22 19 21 18 21 8 7 7 6 8 11 12 18 31 27 26 16 3 19 5 6 7 8 7 8 8 8 9 9 14 16 17 19
27 30 24 23 22 27 25 23 17 11 8 16 30 25 29 12 18 15 19 22 21 9 8 11 7 6 4 4 9 19 30 26 7 6 11 10 10 6 6 5 9 5 5 6 10 13 16 15 15
25 28 28 28 28 25 25 23 10 5 2 4 9 13 38 22 15 12 16 18 20 16 8 8 15 19 21 8 5 7 10 17 1 2 2 8 10 8 5 5 7 10 7 8 8 9 15 13 12
Wind_Direction
172 165 193 139 134 125 112 82 72 62 46 43 52 66 86 105 102 86 153 96 90 86 87 76 80 84 87 100 97 91 86 85 70 62 73 67 65 61 62 67 62 125 84 72 137 46 46 122 130
151 177 205 176 120 117 93 64 59 74 77 53 57 61 53 51 74 97 104 95 94 89 87 82 80 80 83 90 90 92 93 94 85 67 62 105 69 69 62 127 152 148 147 50 82 161 159 140 135
169 196 126 138 119 111 93 72 46 74 63 66 62 67 71 85 91 97 102 99 92 89 89 86 79 76 78 84 90 94 97 98 89 68 68 75 125 110 154 150 153 155 159 68 134 154 144 138 139
117 71 226 134 131 98 85 79 68 91 74 70 73 68 75 86 92 101 98 94 89 91 92 89 80 78 80 87 92 95 96 103 88 74 70 59 70 155 158 156 157 156 161 168 153 148 146 143 139
321 9 75 138 126 83 57 65 98 77 75 65 72 84 85 87 98 102 97 96 95 93 93 89 87 81 83 88 97 102 102 113 126 160 142 154 158 160 158 159 159 151 154 167 156 142 145 146 141
43 253 184 151 84 77 71 148 61 77 76 76 75 72 91 98 92 88 87 95 96 96 94 92 88 93 91 89 102 109 121 131 141 145 149 150 151 151 151 149 147 146 150 148 141 137 140 144 140
230 220 168 122 86 84 99 77 96 93 86 82 86 86 92 88 93 93 103 103 96 97 99 103 99 98 99 98 109 112 113 128 134 138 145 143 143 159 171 169 154 143 146 146 144 140 138 137 140
91 211 200 128 94 85 105 83 104 92 94 96 89 102 101 102 100 96 99 96 98 102 104 109 109 108 114 122 116 122 121 123 128 139 141 144 146 147 148 147 145 144 140 137 139 145 147 148 147
80 243 218 205 38 99 96 79 71 71 98 98 79 101 106 108 96 96 96 93 100 105 103 112 120 113 117 135 129 123 127 119 118 134 141 137 143 144 142 147 149 154 156 158 156 148 146 154 160
1 84 214 214 192 126 80 83 109 80 127 93 99 92 101 104 100 99 96 97 101 101 94 103 136 120 112 127 140 133 137 124 123 153 138 140 142 140 149 160 160 159 163 160 156 162 171 170 168
27 42 134 213 194 205 54 96 129 110 97 102 110 102 110 109 102 91 107 104 106 92 86 201 136 149 136 117 140 142 145 152 155 156 174 171 153 156 154 155 162 159 162 164 165 163 167 169 168
338 104 117 141 212 199 239 11 253 106 102 101 104 108 115 110 105 103 107 113 109 91 97 122 130 133 148 125 144 147 158 152 161 171 165 164 157 163 165 168 172 180 176 175 164 153 159 159 165
357 107 132 105 122 68 28 19 39 92 99 95 112 109 107 111 109 106 105 107 95 95 102 109 119 127 135 137 145 152 158 167 184 229 237 184 157 164 176 173 178 177 174 166 168 165 171 175 181
242 115 120 130 46 313 29 328 31 92 98 95 119 119 106 107 105 103 106 103 106 98 96 98 104 151 127 152 148 152 133 113 44 40 116 166 183 166 155 168 170 180 165 169 176 184 179 168 177
346 109 80 59 291 279 313 328 19 64 93 104 115 120 108 110 117 110 111 102 109 109 102 104 110 147 160 166 143 122 119 93 110 77 137 228 194 206 198 192 195 173 186 190 189 193 192 173 173
264 218 349 299 300 269 311 318 290 300 106 107 118 132 114 114 115 104 102 104 103 108 104 113 120 141 157 159 169 179 168 105 115 99 86 130 123 144 163 202 209 201 208 195 197 201 199 185 182
256 263 297 299 304 322 297 272 238 267 256 104 121 120 111 112 124 113 91 99 106 111 105 119 122 129 152 148 194 182 123 107 124 116 129 92 157 112 206 212 202 213 202 209 236 222 229 211 194
253 261 271 279 281 302 307 296 256 41 247 257 246 133 115 110 120 113 105 104 110 99 110 120 132 125 144 168 210 223 88 129 128 134 108 85 155 115 176 208 200 232 208 235 238 240 241 232 234
270 267 276 286 297 283 295 313 148 152 251 250 248 138 129 127 115 102 112 109 110 105 118 126 133 134 144 153 151 148 224 95 97 108 120 107 85 162 229 190 245 239 223 222 240 243 242 238 275
268 261 277 289 298 281 284 303 273 133 211 233 240 213 198 247 115 108 116 114 117 112 119 124 129 143 148 168 166 173 88 26 109 132 145 184 30 124 214 230 222 225 224 228 250 250 257 257 292
256 269 267 284 296 293 279 271 253 215 236 248 244 239 201 206 236 127 127 126 125 127 124 132 137 152 155 171 161 156 84 45 237 132 167 192 270 256 215 226 238 219 206 228 249 268 291 281 290
267 303 276 296 293 267 260 264 253 234 224 244 252 242 233 201 242 218 135 131 137 141 131 134 135 152 158 166 160 155 159 152 172 155 175 178 171 143 180 195 219 228 222 229 242 290 301 311 303
266 278 279 289 290 284 247 252 266 214 182 212 184 206 195 183 228 221 236 191 139 141 140 133 139 153 162 165 165 165 163 173 189 164 168 183 192 160 159 193 219 216 242 253 261 275 295 319 291
236 291 294 284 268 266 259 273 261 240 181 176 171 169 234 171 197 222 246 233 175 144 138 138 136 148 163 165 173 170 172 171 164 158 140 162 176 179 191 183 200 257 244 251 245 271 284 325 325
238 257 260 260 246 255 301 230 247 195 185 169 166 168 162 170 176 198 237 190 158 152 149 140 136 141 155 174 169 174 177 170 165 148 150 161 170 178 179 194 193 232 237 240 264 261 269 281 306
248 253 252 259 250 263 288 256 233 272 273 174 179 169 171 175 174 167 164 165 206 254 157 148 136 131 137 166 176 177 170 192 179 147 149 162 166 168 168 155 132 208 237 249 277 255 273 287 306
254 255 254 272 277 282 279 278 344 13 327 331 272 199 175 178 177 161 169 172 165 230 190 152 143 126 134 141 187 193 179 152 191 194 192 271 224 143 135 128 95 99 25 327 326 298 272 239 277
256 264 264 265 258 276 271 274 273 283 301 287 276 263 200 172 172 166 160 156 160 211 239 232 222 149 141 145 154 204 180 209 273 356 258 351 46 52 85 91 101 91 89 78 358 311 301 305 279
253 251 264 274 277 263 270 277 302 308 284 311 269 261 250 200 180 178 167 166 168 178 223 242 243 232 182 165 153 161 195 179 299 316 296 297 321 58 69 43 107 76 29 14 344 320 310 325 314
260 256 259 263 264 277 281 293 324 18 315 351 111 174 202 186 178 184 176 170 168 169 207 236 248 257 254 253 178 158 154 161 335 66 7 309 302 325 44 40 338 318 344 339 354 354 314 330 347